Location: Maccacari
(45.1333°N, 11.1333°E)
Time: 13:53:01
(UTC+00:00)

S-56A Canister/Altair - Pass Details

Date: 29 January 2021
Orbit: 631 x 2501 km, 38.9° (Epoch: 01 March)

Event Time Altitude Azimuth Distance (km) Brightness Sun altitude
Rises 21:44:59 0° 198° (SSW) 4,135 - -55.1°
Reaches altitude 10° 21:50:44 10° 165° (SSE) 2,690 - -55.8°
Maximum altitude 21:52:13 11° 151° (SSE) 2,516 - -56.0°
Drops below altitude 10° 21:53:35 10° 137° (SE) 2,475 - -56.1°
Sets 21:57:58 0° 100° (E) 3,127 - -56.7°
